www.pogodaiklimat.ru

АРХИВ ПОГОДЫ в Геленджике

Время (UTC), дата Ветер
(напр.,м/с)
 
Видим.   Явления Облачность Т
(С)
Тd
(С)
f
(%)
Тe
(С)
Тes
(С)
Комфортность P
(гПа)
Po
(гПа)
Тmin
(С)
Tmax
(С)
R
(мм)
S
(см)
03 11.01 В 1 10 км 10/0
[Cc]
+7.7 -3.6 45 +8 +8 тепло 1019.3 1017.4 +2.4
06 11.01 В 3 50 км 10/3 1000 м
[Sc Ac trans Cc]
+10.0 -4.2 36 +8 +9 тепло 1019.8 1017.9
09 11.01 В 2
{11}
50 км 10/4 1000 м
[Sc Ac trans Cc]
+11.1 +2.8 57 +10 +11 тепло 1021.0 1019.1
12 11.01 ЮВ 4
{11}
50 км 10/10 600 м
[Sc]
+9.9 +6.3 78 +7 +7 тепло 1021.9 1020.0
15 11.01 ЮВ 1 10 км в посл. час ливневой дождь 10/10 600 м
[Cb cap]
+7.1 +5.1 87 +6 +6 тепло 1024.3 1022.4 +11.3 2
18 11.01 З 1 10 км {ливн. осадки} ясно +8.1 +2.9 70 +8 +8 тепло 1025.3 1023.4
21 11.01 В 2 10 км 1/1 600 м
[Sc]
+6.4 +2.9 78 +4 +4 тепло 1024.4 1022.5
00 12.01 В 3 10 км ясно +8.8 +5.0 77 +6 +6 тепло 1022.6 1020.8
03 12.01 В 3
{12}
10 км 8/0
[Ac trans]
+9.8 +5.2 73 +8 +8 тепло 1019.7 1017.9 +5.4
06 12.01 В 3-11
{15}
20 км 9/0
[Ac As Cs]
+9.8 +6.2 78 +8 +8 тепло 1017.3 1015.5
09 12.01 ЮВ 4-10
{12}
20 км 10/1 600 м
[Sc Ac As Cs]
+10.4 +5.9 74 +8 +9 тепло 1015.1 1013.3
12 12.01 ЮВ 5-13
{13}
20 км 10/3 1000 м
[Sc Ac As]
+10.2 +5.0 70 +7 +8 тепло 1011.9 1010.1
15 12.01 ЮВ 6-12
{15}
10 км 10/5 600 м
[Sc Ac As Cs]
+10.1 +4.8 70 +7 +7 тепло 1010.7 1008.9 +10.5
18 12.01 ЮЗ 8-15
{15}
10 км слабый ливневой дождь 10/10 600 м
[Cb cap]
+7.5 +4.1 79 +3 +3 по сезону 1011.6 1009.7
21 12.01 ЮЗ 7-14
{15}
10 км слабый ливневой дождь 10/10 600 м
[Cb cap]
+4.8 +1.3 78 -1 -1 по сезону 1014.3 1012.5
00 13.01 З 3
{16}
10 км слабый ливневой дождь 10/10 600 м
[Cb cap]
+3.9 -0.5 73 0 0 по сезону 1016.6 1014.8
03 13.01 ЮЗ 5-12
{13}
10 км {ливн. осадки} 10/10 600 м
[Cb cap]
+5.7 -0.3 65 +2 +2 по сезону 1016.5 1014.7 +1.8 4
06 13.01 З 1
{12}
20 км {ливн. осадки} 10/8 600 м
[Cb cap Ac trans Ci fib]
+4.6 -0.6 69 +4 +4 тепло 1017.9 1016.0
09 13.01 СЗ 1 20 км 10/3 1000 м
[Sc Ac As]
+3.8 -1.4 69 +3 +4 по сезону 1019.5 1017.6
12 13.01 ЮЗ 2 50 км 3/3 1000 м
[Cu hum]
+5.4 -2.8 55 +3 +5 по сезону 1020.1 1018.2
15 13.01 З 1 10 км 3/3 600 м
[Sc]
+3.5 -3.2 62 +2 +2 по сезону 1021.2 1019.3 +6.1
18 13.01 СВ 2 10 км ясно +1.4 -3.6 69 -2 -2 по сезону 1021.6 1019.7
21 13.01 В 2 10 км 4/0
[Ci fib]
+3.2 -2.7 65 +1 +1 по сезону 1020.5 1018.6
00 14.01 ЮВ 4 10 км 8/4 600 м
[Sc Ac trans Ci fib]
+6.5 +0.4 65 +3 +3 тепло 1019.4 1017.5
03 14.01 В 3 10 км 8/5 600 м
[Sc Ac trans Ci fib]
+6.8 +1.8 70 +4 +4 тепло 1018.7 1016.8 0.0
06 14.01 В 3 50 км 6/4 600 м
[Sc Ac trans Cc]
+7.1 +1.2 66 +4 +5 тепло 1017.4 1015.5
09 14.01 В 3 50 км 10/6 600 м
[Cu Sc Ac und]
+7.5 +0.8 62 +5 +5 тепло 1016.1 1014.2
12 14.01 ЮВ 2 50 км 10/8 600 м
[Sc Ac trans Cc]
+8.0 +1.3 63 +6 +7 тепло 1014.7 1012.9
15 14.01 СВ 1 10 км 6/3 600 м
[Sc Ac trans Cc]
+5.9 -1.6 59 +5 +5 тепло 1014.6 1012.7 +8.7
18 14.01 СВ 3 10 км 8/0
[Ac trans Cc]
+7.3 -3.9 45 +5 +5 тепло 1013.6 1011.8
21 14.01 В 2 10 км 8/0
[Cc]
+7.6 -3.6 45 +6 +6 тепло 1013.1 1011.3
00 15.01 В 1 10 км 10/0
[Cc]
+7.6 -2.4 49 +7 +7 тепло 1013.4 1011.5
03 15.01 В 2 10 км 8/0
[Ac trans Cc]
+8.3 +2.9 69 +7 +7 тепло 1013.2 1011.4 +5.9
06 15.01 В 2 50 км 10/0
[Cc]
+8.2 +2.9 69 +7 +7 тепло 1014.0 1012.2 +5.8
09 15.01 В 2 50 км 6/0
[Ac trans Cc]
+10.8 +4.9 67 +10 +13 тепло 1014.9 1013.1
12 15.01 ЮВ 2
{11}
50 км 1/1 1000 м
[Sc]
+10.5 +4.7 67 +9 +11 тепло 1015.4 1013.6
15 15.01 В 1 10 км 10/0
[Ac und]
+8.2 +0.9 60 +8 +8 тепло 1016.8 1014.9 +11.0
18 15.01 В 2 10 км 8/0
[Ac As]
+8.2 +2.6 68 +7 +7 тепло 1017.3 1015.5
21 15.01 СВ 1 10 км 10/0
[Ac und]
+7.6 +3.6 76 +7 +7 тепло 1018.1 1016.3
00 16.01 ЮВ 1 10 км слабый ливневой дождь 10/10 600 м
[Cb cap]
+8.9 +5.6 80 +8 +8 тепло 1019.0 1017.1
03 16.01 штиль 0 10 км слабый ливневой дождь 10/10 200 м
[Cb cap]
+7.0 +5.4 90 +6 +6 тепло 1019.5 1017.6 +7.0 3
06 16.01 штиль 0 20 км {ливн. осадки} 10/10 600 м
[Cb cap]
+7.7 +4.9 82 +7 +7 тепло 1020.7 1018.8 +6.7
09 16.01 ЮВ 1 20 км 10/10 300 м
[Cb cap]
+8.9 +6.3 84 +8 +8 тепло 1021.2 1019.4
12 16.01 ЮЗ 1 50 км 10/4 600 м
[Cu Sc Ac trans Cs]
+8.2 +5.1 81 +7 +8 тепло 1021.2 1019.4
15 16.01 штиль 0 10 км 10/8 600 м
[Sc Ac und]
+6.7 +4.5 86 +6 +6 тепло 1021.0 1019.1 +8.9
18 16.01 С 1 10 км 10/10 600 м
[Cb calv]
+6.7 +5.1 90 +6 +6 тепло 1020.6 1018.7
21 16.01 СВ 1 10 км 10/10 600 м
[Cb calv]
+6.3 +3.5 82 +5 +5 тепло 1021.0 1019.1
00 17.01 СВ 3 10 км 10/10 600 м
[Cb calv]
+8.7 +1.8 62 +6 +6 тепло 1020.5 1018.7
03 17.01 СВ 3 10 км {ливн. осадки} 10/10 600 м
[Cb cap]
+9.4 +0.5 54 +7 +7 тепло 1020.0 1018.1 +6.0
06 17.01 СВ 2 20 км {ливн. осадки} 10/4 600 м
[Cb cap Ac trans]
+10.3 -0.4 47 +9 +10 тепло 1021.0 1019.2
09 17.01 В 2 20 км в посл. час ливневой дождь 10/4 600 м
[Cb cap Ac trans]
+10.8 +1.0 51 +10 +11 тепло 1021.1 1019.3
12 17.01 СВ 3 50 км {ливн. осадки} 8/0
[Ac trans Cc]
+11.2 +1.8 52 +10 +11 тепло 1021.1 1019.3
15 17.01 СВ 1 10 км 3/0
[Ac trans]
+7.3 +2.7 73 +7 +7 тепло 1021.7 1019.9 +11.4
18 17.01 СВ 2 10 км 4/0
[Ac trans Ci fib]
+6.9 +1.1 67 +5 +5 тепло 1021.9 1020.1
21 17.01 СВ 5 10 км 3/0
[Ac trans]
+8.6 -0.9 51 +6 +6 тепло 1021.3 1019.5
00 18.01 С 2 10 км 4/0
[Ci fib]
+7.2 +1.2 66 +5 +5 тепло 1022.0 1020.1

 

Местоположение метеостанции Геленджик (Краснодарский край, Россия): широта 44.57 долгота 38.08 высота над уровнем моря 15 м.

В архиве по умолчанию представлена погода в Геленджике за последнюю неделю. Архивные данные за месяц целиком и за предыдущие месяцы, начиная с января 2011 года, Вы можете получить, выбрав интересующий диапазон дат из раскрывающегося списка и нажав кнопку "Ввод!".

Внимание! Время в таблицах - всемирное. Для получения местного времени необходимо прибавить поправку, которая в Геленджике равна 3 ч.

Ветер - указаны скорость ветра в м/с - средняя за 10 мин, порывы в срок и между сроками (в фигурных скобках) и направление, откуда дует ветер: С - северный, СВ - северо-восточный, В - восточный, ЮВ - юго-восточный, Ю - южный, ЮЗ - юго-западный, З - западный, СЗ - северо-западный.
Видимость - горизонтальная дальность видимости в метрах или километрах. При видимости от 1 до 10 км при отсутствии осадков обычно наблюдается дымка, при ухудшении видимости до 1 км и менее - туман. В сухую погоду видимость может ухудшаться дымом, пылью или мглою.
Явления - указаны атмосферные явления, наблюдавшиеся в срок или в последний час перед сроком; фигурными скобками обозначены явления, наблюдавшиеся между сроками (за 1-3 часа до срока); квадратными скобками обозначены град или гололедные отложения с указанием их диаметра в мм.
Облачность - указаны через наклонную черту общая и нижняя облачность в баллах и высота нижней границы облаков в метрах; квадратными скобками обозначены формы облаков: Ci - перистые, Cs - перисто-слоистые, Cc - перисто-кучевые, Ac - высококучевые, As - высокослоистые, Sc - слоисто-кучевые, Ns - слоисто-дождевые, Cu - кучевые, Cb - кучево-дождевые. Подробнее классификацию облаков см. в Атласе облаков (PDF).
T - Температура воздуха - температура, измеренная на высоте 2 м над землей.
Td - Температура точки росы - температура, при понижении до которой содержащийся в воздухе водяной пар достигнет насыщения.
f - Относительная влажность воздуха - влажноcть воздуха, измеренная на высоте 2 м над землей.
Te - Эффективная температура - температура, которую ощущает одетый по сезону человек в тени. Характеристика душности погоды. При расчете учитывается влияние влажности воздуха и скорости ветра на теплоощущения человека.
Tes - Эффективная температура на солнце - температура, которую ощущает человек, с поправкой на солнечный нагрев. Характеристика знойности погоды. Зависит от высоты солнца над горизонтом, облачности и скорости ветра. Ночью, в пасмурную погоду, а также при ветре 12 м/с и более поправка равна нулю.
P - Атмосферное давление - приведенное к уровню моря атмосферное давление.
Po - Атмосферное давление - измеренное на уровне метеостанции атмосферное давление.
Tmin - Минимальная температура - минимум температуры воздуха на высоте 2 м над землей.
Tmax - Максимальная температура - максимум температуры воздуха на высоте 2 м над землей.
R - Количество осадков - Количество выпавших осадков, мм. При наведении курсора мыши на число - период времени, за который выпало указанное количество осадков.
S - Снежный покров - Высота снежного покрова, см. При наведении курсора мыши на число - состояние снежного покрова и степень покрытия местности в баллах.